Wind_Speed
12 12 13 15 16 15 15 16 17 17 17 17 17 17 17 17 18 15 12 10 8 8 8 8 8 9 10 11 12 13 14 14 15 16 17 17 17 17 17 17 17 16 16 16 15 14 13 12 11 10 10 10 9 9 8 7 7 7 7 7 7 7 7 7 7 7 7 7 7 7 7 7 7 7 8 8 8 8 8 9 10 11 11 12 11
10 11 13 15 16 14 14 15 16 17 17 17 17 17 17 17 18 17 14 11 9 8 8 8 8 9 10 11 11 12 13 14 15 16 16 17 18 18 18 17 16 16 16 16 15 14 14 12 11 11 10 10 10 9 9 8 8 7 7 7 7 7 8 7 7 8 8 8 7 7 7 7 7 7 7 8 8 8 8 8 9 10 11 12 12
11 12 13 15 16 15 15 15 16 16 16 17 17 18 18 18 18 19 16 12 10 9 9 9 8 9 10 10 11 12 13 14 15 15 16 17 18 19 19 18 16 15 15 15 15 15 14 13 12 11 11 11 10 10 9 9 8 7 7 8 8 8 8 8 8 8 8 8 8 8 8 8 8 8 8 8 8 8 8 8 9 10 11 11 12
12 13 14 16 16 15 15 16 17 16 16 17 17 18 18 18 18 19 18 14 11 10 10 10 9 9 10 10 11 12 13 13 14 15 15 17 18 19 19 18 17 16 15 15 15 15 14 14 13 13 12 12 11 10 9 9 8 8 8 8 8 8 9 9 9 9 9 9 9 9 9 9 9 9 9 9 9 9 9 9 9 10 11 12 12
13 14 15 16 15 15 16 16 16 16 16 16 18 19 19 19 19 19 19 16 13 11 11 10 9 9 10 10 11 12 12 13 13 14 15 16 18 19 19 19 17 16 15 14 14 14 14 14 14 13 13 13 12 10 9 9 8 8 9 9 9 9 9 9 10 10 10 10 10 10 10 10 10 10 10 10 10 10 10 10 10 10 11 12 13
14 15 16 15 14 15 16 16 16 15 15 16 18 19 20 20 20 19 20 18 15 13 12 11 10 9 10 10 10 11 12 12 13 13 14 15 17 18 19 19 18 16 15 14 14 14 14 14 14 14 13 13 12 11 10 9 9 10 10 10 10 10 10 10 10 10 10 10 10 10 10 10 10 11 11 11 11 11 11 11 10 11 12 13 13
16 15 14 13 13 15 16 16 15 15 15 16 18 19 20 20 20 19 20 20 17 14 13 12 11 10 10 10 10 11 12 12 12 12 13 14 15 17 18 19 18 16 15 14 13 13 13 13 14 13 13 13 13 12 11 11 11 11 11 11 11 11 11 10 10 10 11 11 10 10 10 10 11 11 11 12 12 12 11 11 11 12 13 13 14
16 13 12 12 13 15 15 16 16 15 15 16 18 19 20 20 20 20 20 20 19 16 14 13 12 10 10 10 10 10 11 11 11 11 11 12 14 16 17 18 18 17 15 14 13 12 13 13 13 13 13 13 13 13 12 12 11 11 11 11 11 11 11 11 11 11 11 11 11 11 11 11 11 11 12 13 13 12 12 12 12 13 14 14 15
14 10 10 10 13 15 16 17 17 16 16 17 19 20 20 19 19 19 19 19 19 17 15 14 12 11 10 10 9 10 11 11 10 10 10 11 12 14 16 17 18 17 16 14 13 12 12 13 13 13 13 13 13 13 13 13 12 12 12 12 12 12 11 11 11 12 12 11 11 11 12 12 12 11 12 13 13 12 12 12 13 14 15 16 16
12 10 9 10 13 16 17 18 18 17 17 17 19 20 20 19 19 19 19 19 19 18 17 15 13 11 10 10 9 9 10 11 10 10 9 10 11 13 14 16 17 17 17 15 14 13 12 13 13 13 13 13 14 14 14 14 13 13 12 12 13 13 12 12 12 12 12 12 12 12 12 12 13 12 12 13 13 13 12 12 14 15 16 17 17
13 12 11 11 14 16 17 19 19 18 18 18 19 21 21 20 19 19 19 19 19 19 18 16 14 12 11 11 10 9 10 10 10 10 9 9 10 11 13 14 16 17 17 16 15 13 13 13 13 13 13 13 14 14 14 14 14 14 14 13 13 14 14 13 13 13 13 12 12 13 13 13 13 13 13 14 15 14 13 13 14 15 17 18 18
13 14 13 13 14 16 18 19 20 20 19 19 20 21 21 20 19 19 19 19 19 20 20 18 15 13 11 11 10 9 9 10 10 10 10 9 10 11 12 13 14 16 16 17 16 14 13 13 13 13 13 13 13 13 13 14 15 15 15 14 14 14 15 15 14 14 14 14 14 14 14 14 14 15 14 14 15 15 15 15 15 16 17 18 18
13 14 14 14 15 16 18 19 20 20 20 20 20 21 21 21 20 19 19 19 20 20 21 19 16 14 12 11 11 10 10 10 10 11 11 10 10 11 11 12 13 14 16 16 16 16 14 14 13 13 13 13 13 13 13 13 14 15 15 15 14 14 15 16 15 15 15 15 15 15 15 15 16 16 16 16 16 16 17 17 17 17 18 19 19
13 13 13 15 16 17 18 20 21 21 21 21 21 22 22 21 20 20 20 20 20 21 21 20 18 15 13 12 12 11 10 10 10 11 11 11 11 11 11 12 12 13 14 15 16 16 16 15 14 14 13 13 13 12 12 12 13 14 15 15 15 15 15 15 15 15 15 15 15 15 16 16 17 17 17 17 18 18 18 18 18 18 18 19 20
14 14 14 15 17 18 19 20 21 22 22 22 22 22 22 21 20 20 20 20 21 22 22 21 19 16 14 13 12 12 11 10 11 12 12 12 11 11 11 12 12 12 13 14 15 16 16 16 15 14 14 13 13 12 12 12 12 13 14 15 15 15 15 14 14 14 14 15 16 16 16 16 17 17 18 18 18 18 19 19 19 19 19 19 20
18 17 17 17 18 19 20 21 22 23 22 23 23 23 22 21 21 20 20 21 21 22 22 21 20 17 15 13 13 12 11 11 11 12 13 12 12 12 12 12 12 12 12 13 14 15 15 16 15 15 14 13 13 12 12 12 12 13 13 14 15 15 15 14 14 14 14 15 16 17 17 17 17 18 18 19 19 19 19 20 20 20 20 20 21
24 23 22 21 21 23 23 22 22 23 23 23 23 23 22 21 20 20 20 21 21 22 22 22 20 18 15 14 13 12 11 11 11 13 13 13 13 13 12 12 12 12 12 13 13 14 14 15 16 15 15 14 13 13 12 12 12 12 12 13 15 15 14 14 15 14 14 14 15 16 17 17 18 18 19 19 19 19 20 20 20 21 21 21 21
29 27 26 26 26 27 26 24 23 24 24 23 23 23 21 21 20 20 20 21 21 22 22 22 20 18 15 14 13 12 11 11 12 13 13 13 13 13 13 13 13 12 12 12 13 13 14 15 15 16 16 15 14 13 13 12 12 12 12 12 13 14 14 14 15 15 15 15 15 15 16 17 18 18 19 19 19 20 20 20 20 21 21 22 22
31 30 30 30 29 30 29 27 24 24 24 23 23 22 20 20 20 19 20 21 21 22 22 22 20 18 15 14 13 12 11 11 12 13 13 14 14 14 13 13 13 12 12 12 12 13 13 14 15 16 16 15 15 14 14 13 13 12 12 11 11 12 13 14 15 16 16 16 16 16 16 17 17 18 19 19 20 20 21 21 22 22 22 22 22
33 32 31 31 30 30 30 29 26 25 25 24 23 22 20 20 19 19 20 21 21 22 22 21 20 18 15 14 13 12 11 12 12 13 14 14 14 14 14 13 13 12 12 12 12 12 13 14 15 16 16 16 16 15 14 14 13 12 12 11 10 11 12 13 14 16 17 18 18 18 18 18 18 18 19 19 20 21 22 22 23 24 24 24 23
34 34 33 31 31 31 31 30 27 26 26 26 24 22 20 19 18 19 20 21 22 22 22 21 19 17 15 14 13 12 12 12 13 14 14 14 14 14 13 13 12 12 12 12 12 12 12 13 14 16 16 16 16 15 15 14 13 13 12 11 11 11 12 13 14 15 17 19 19 19 19 20 20 20 21 21 21 22 23 24 24 24 25 25 24
35 35 34 32 32 33 31 29 28 27 27 26 25 22 20 19 18 19 20 21 22 22 21 20 19 17 15 14 13 12 12 13 13 13 13 13 13 13 13 12 12 11 11 11 12 12 12 13 14 15 16 16 16 15 15 14 14 13 13 12 12 12 13 14 15 15 17 19 20 21 21 21 22 23 23 24 24 24 24 24 25 25 25 25 24
37 36 34 33 34 33 30 27 27 27 27 26 24 21 19 18 17 19 20 21 21 21 20 19 18 16 15 14 14 13 13 13 13 13 13 13 13 12 12 11 11 11 11 11 11 11 12 12 13 15 16 16 16 16 15 14 14 14 13 13 13 13 13 14 15 16 17 19 20 20 21 22 23 23 24 24 24 24 24 25 25 25 25 25 24
37 36 35 35 34 31 28 27 27 27 26 25 23 21 19 17 18 19 20 21 21 20 19 18 17 16 15 14 13 13 13 13 13 13 12 12 12 12 12 11 10 11 11 10 11 11 11 12 13 14 16 16 17 16 15 15 14 14 14 14 14 14 14 15 16 17 18 19 20 20 21 22 23 23 23 24 23 24 25 25 26 26 25 24 24
38 38 36 34 31 29 27 27 27 25 24 22 22 21 18 17 18 19 20 20 20 19 19 18 16 15 15 14 13 13 13 13 13 13 12 12 12 12 12 11 10 11 10 10 11 11 11 12 13 14 15 16 16 16 15 15 15 15 15 15 15 16 16 16 17 19 19 20 21 21 22 23 23 24 24 24 24 25 26 26 26 26 25 25 25
39 38 35 31 29 27 26 27 25 24 22 21 21 20 17 17 18 19 19 19 19 19 19 17 16 15 15 15 14 13 13 12 12 12 12 12 13 13 12 12 11 11 10 10 11 11 12 12 13 14 15 15 16 16 15 15 15 15 15 16 16 16 17 18 18 19 21 21 22 23 23 23 24 24 25 25 26 26 27 28 27 25 26 26 28
38 36 31 28 27 26 26 26 24 23 22 20 21 20 18 18 19 19 19 18 19 19 18 17 16 15 15 15 14 13 12 12 12 12 12 13 14 14 13 12 12 11 10 10 11 11 11 12 13 14 14 15 15 16 15 15 15 15 16 16 16 17 17 18 19 20 21 22 23 23 24 24 24 25 25 26 26 27 27 28 27 27 26 27 28
35 32 27 26 26 25 26 26 23 22 22 21 21 20 18 18 19 19 19 18 18 19 18 16 16 16 15 15 14 12 11 11 12 12 13 14 15 15 14 13 12 11 11 11 10 10 10 11 13 14 14 15 15 15 15 15 16 16 16 17 17 18 18 19 20 21 22 23 24 24 25 25 25 26 26 26 27 27 28 29 29 29 28 28 27
32 28 25 24 25 25 26 26 24 23 22 21 20 19 19 19 21 21 19 18 19 19 17 16 17 16 16 14 13 12 12 12 12 13 13 15 16 16 15 14 12 11 11 11 10 9 9 11 12 13 14 15 15 15 15 15 15 16 16 17 18 18 19 20 21 22 23 24 25 26 26 26 26 26 27 27 28 29 29 30 30 30 30 29 28
29 27 25 23 23 24 26 27 25 24 23 21 20 20 20 21 23 21 19 18 19 18 17 17 17 17 15 14 13 12 12 12 13 13 13 15 16 16 15 14 13 12 11 11 10 8 9 10 12 13 14 14 15 15 15 15 15 16 17 18 19 19 20 21 22 23 24 25 25 26 26 26 26 27 27 28 29 29 30 30 30 30 30 29 28
27 26 23 21 21 22 25 25 25 24 23 22 21 21 22 23 23 21 19 19 19 18 17 18 18 17 15 14 14 13 12 13 13 13 14 15 16 16 15 14 14 12 11 11 10 8 8 10 11 13 14 14 15 15 15 15 15 16 17 18 19 20 20 21 22 23 23 24 25 25 26 26 27 27 28 28 29 30 30 30 30 30 29 29 29
23 23 21 19 20 23 24 24 25 25 23 23 23 23 24 25 24 21 20 19 18 18 18 19 18 16 15 15 14 12 12 13 13 13 14 16 16 15 15 15 13 12 12 12 10 9 9 11 12 14 15 15 15 15 15 16 16 17 17 18 19 19 20 21 21 22 23 24 24 25 25 26 26 27 27 28 29 29 30 30 29 29 29 29 29
20 21 20 20 21 23 24 24 24 24 23 24 24 24 25 26 25 22 20 19 18 19 19 19 17 15 15 14 13 12 12 12 13 13 14 15 15 15 15 15 14 12 12 12 11 9 10 12 14 15 16 16 16 16 16 16 17 18 18 19 19 20 20 21 22 22 24 24 25 25 25 26 26 27 28 28 29 29 29 29 29 29 29 29 29
17 18 18 19 20 21 23 24 23 22 21 22 23 25 26 28 27 23 20 19 19 19 20 19 16 15 15 13 12 11 12 13 13 12 13 14 15 15 16 15 13 12 12 12 11 10 11 12 14 15 16 16 16 16 16 17 17 18 19 19 20 20 21 21 22 23 25 26 27 27 27 27 27 27 28 29 29 29 29 29 29 29 30 30 30
15 17 17 17 17 19 21 23 23 23 21 20 21 24 28 29 27 24 22 21 20 20 20 18 16 15 13 11 11 11 13 14 12 11 12 14 16 16 15 14 12 11 11 11 10 10 10 12 13 15 15 15 15 15 16 17 18 18 19 19 20 21 21 22 23 24 26 27 28 28 28 28 28 28 28 29 29 30 29 29 29 29 30 30 31
15 17 19 19 17 17 18 19 21 23 21 20 20 23 29 29 25 24 23 21 20 20 19 17 15 13 11 11 11 12 15 14 11 11 11 13 14 14 12 11 11 10 10 10 10 9 10 11 13 14 15 14 14 15 16 17 18 19 20 21 21 22 22 23 24 25 27 28 29 29 29 29 29 29 28 28 29 30 30 29 29 30 30 30 31
16 17 19 21 19 16 16 16 18 20 21 22 21 23 28 28 23 24 24 22 20 19 18 16 15 13 11 11 12 15 16 13 11 10 10 11 11 10 9 9 10 9 9 10 10 9 9 11 13 14 15 15 15 16 16 18 19 21 21 22 22 23 23 24 25 26 28 29 30 29 29 29 29 28 28 28 29 30 30 30 30 30 31 31 31
17 16 16 19 20 18 17 17 18 19 20 22 22 21 24 24 23 25 24 21 20 19 17 16 14 12 11 12 14 16 16 13 10 9 8 9 8 8 8 9 9 9 9 10 9 9 9 11 12 14 15 16 16 17 18 19 20 22 22 22 23 23 24 25 26 27 29 29 30 30 29 29 28 28 28 29 29 29 30 30 31 31 31 32 32
17 16 14 15 18 18 17 17 18 17 17 19 20 20 22 24 25 25 24 22 20 18 17 16 14 12 13 15 17 17 15 12 11 9 8 7 7 7 8 9 9 9 10 10 9 9 10 11 12 14 16 17 18 19 20 20 21 22 23 23 24 24 25 26 27 28 29 29 29 29 29 29 28 28 28 29 29 29 30 30 31 31 31 31 32
17 16 14 14 16 17 18 17 17 16 14 15 17 19 22 25 26 26 25 22 19 18 17 15 13 13 15 17 17 16 14 13 12 11 10 8 8 8 9 9 9 10 10 10 9 9 10 11 12 14 16 18 20 20 21 21 21 22 23 24 24 25 26 27 28 28 27 26 26 27 28 29 29 29 30 30 29 30 30 30 31 31 31 31 31
17 15 15 15 16 17 17 17 18 17 15 14 16 19 23 25 26 27 25 21 18 17 15 14 14 15 17 18 17 15 14 13 14 13 12 10 10 11 11 10 9 10 11 10 9 10 10 12 13 15 17 19 20 20 21 22 22 23 23 24 24 26 26 27 27 26 24 24 24 26 27 28 29 30 31 31 30 30 31 31 31 31 31 31 31
17 15 15 16 17 16 16 17 18 17 16 16 18 21 23 23 25 26 24 19 17 15 14 15 16 18 18 17 15 14 14 14 14 14 13 12 12 13 11 9 9 11 11 10 10 10 11 12 14 16 18 19 20 20 21 22 23 24 25 26 27 27 27 26 25 24 23 22 23 25 26 28 29 30 31 31 30 30 30 31 30 30 30 30 30
16 16 16 16 17 16 16 17 18 18 17 17 20 24 23 21 23 24 21 18 16 15 15 17 18 18 18 16 14 13 14 14 14 14 13 12 12 12 10 9 10 11 11 10 11 12 12 14 16 17 18 19 19 20 21 22 23 25 27 28 29 29 28 28 27 27 26 24 23 25 26 27 28 29 30 30 30 30 30 30 30 29 29 29 29
15 16 17 17 17 16 16 17 18 18 18 19 22 23 22 21 22 23 20 18 16 16 17 18 19 19 17 15 14 14 13 13 14 14 12 12 12 11 9 9 10 11 11 11 12 13 14 15 16 17 17 18 18 20 21 22 24 26 27 28 27 27 28 30 31 32 32 30 28 27 27 28 28 29 30 30 30 30 30 29 29 28 28 28 28
16 17 17 18 17 15 16 17 18 19 18 18 20 21 19 21 22 22 21 19 18 18 19 19 19 18 16 15 15 14 13 13 13 12 11 11 12 10 8 9 10 11 11 12 14 15 16 16 17 16 17 17 18 19 21 23 25 26 26 25 24 25 26 27 30 32 33 32 30 29 29 28 28 29 30 30 30 29 29 29 29 28 28 28 28
17 17 17 17 16 15 16 18 19 18 16 16 20 20 19 20 22 23 22 21 21 21 20 19 17 17 17 17 15 14 13 13 12 11 10 11 11 9 8 9 10 10 11 13 15 16 16 17 17 17 17 18 19 20 21 23 24 24 22 22 22 23 24 25 27 30 32 32 31 29 28 28 27 28 29 30 29 29 29 29 29 29 28 28 28
17 17 17 16 15 15 16 18 19 18 16 17 20 22 21 21 22 23 23 22 22 22 20 18 18 18 18 17 15 13 12 11 11 11 11 11 10 9 9 9 10 11 13 14 15 16 16 17 17 18 19 19 20 21 23 24 23 21 20 20 21 22 24 25 26 28 30 31 30 28 27 26 25 27 28 29 29 29 29 29 29 29 29 28 28
17 17 17 16 16 15 17 18 17 17 17 18 20 22 21 21 22 22 23 24 23 21 19 18 19 19 18 17 15 12 11 11 12 12 11 11 9 8 9 10 10 12 13 14 15 15 16 17 18 19 19 20 22 24 25 24 22 20 20 20 21 22 24 25 26 25 25 26 27 27 26 26 25 25 27 28 28 29 29 29 29 29 29 29 28
17 16 16 17 17 16 16 17 16 15 17 18 19 20 20 20 21 22 23 24 22 20 19 19 19 19 18 16 13 11 10 11 12 12 12 11 9 8 9 10 11 12 13 14 14 15 16 17 18 19 20 21 24 25 25 23 21 20 21 21 22 24 25 25 25 24 23 23 24 25 26 27 28 27 28 28 28 29 29 30 30 29 29 29 28
17 16 16 16 16 16 16 16 15 14 16 17 19 20 20 20 21 23 23 22 20 19 19 19 19 19 17 14 12 12 11 10 12 12 12 10 8 8 10 11 12 12 13 13 14 15 17 18 19 19 21 23 25 25 24 22 21 21 22 22 23 25 26 26 24 24 24 25 25 26 27 28 29 29 29 29 28 28 29 29 29 29 29 29 29
19 17 16 16 16 15 16 16 15 15 16 18 20 20 20 20 21 21 21 20 19 18 19 19 18 17 14 12 11 12 11 11 12 12 11 9 8 9 11 12 12 12 13 13 15 16 17 18 19 20 22 24 24 24 22 22 21 22 23 23 24 25 26 26 25 25 26 26 27 28 29 29 29 30 30 29 29 28 28 29 29 29 29 29 29
Wind_Direction
349 349 345 342 338 335 337 344 349 348 348 349 354 359 4 10 12 12 8 359 349 347 350 356 0 4 9 11 9 5 2 4 10 12 12 11 10 9 7 6 6 5 5 5 6 8 10 11 11 7 1 358 356 351 346 345 342 339 337 336 333 332 329 325 321 319 319 320 321 324 326 328 329 327 325 321 316 313 309 304 299 294 288 285 284
360 353 345 342 341 339 340 346 349 347 347 349 354 359 3 10 11 11 7 358 347 342 343 348 353 355 1 8 7 2 0 4 9 13 14 12 11 9 6 5 3 2 2 4 5 8 10 11 10 5 359 357 356 351 347 345 341 339 337 334 330 327 324 319 315 314 314 315 316 316 317 318 317 315 317 316 313 311 309 306 302 297 292 288 285
349 345 343 340 338 340 342 347 351 348 349 350 355 360 4 9 10 11 7 358 348 340 338 340 347 348 353 3 5 359 359 4 8 13 15 13 11 8 6 4 3 2 2 2 4 6 8 10 9 4 359 358 356 351 349 346 341 339 337 333 328 323 319 315 312 310 309 309 308 307 308 308 307 308 312 312 308 306 305 304 301 298 293 289 285
341 337 339 337 335 337 342 348 352 350 352 353 356 1 4 7 8 9 7 359 350 341 333 333 342 342 346 356 1 357 357 3 7 12 15 13 11 9 6 4 3 2 2 2 3 4 5 7 6 4 360 359 357 353 350 347 343 339 336 332 327 322 318 315 312 310 309 309 307 305 304 302 303 305 307 306 304 302 302 302 301 299 295 291 286
331 331 332 333 332 334 340 346 352 352 354 356 358 2 4 5 5 7 6 2 353 341 330 327 335 339 342 349 356 356 356 1 5 10 13 13 12 10 7 5 4 4 3 2 2 2 2 3 3 2 360 358 356 354 351 346 341 338 335 332 327 323 320 317 314 312 311 309 307 305 304 304 305 305 304 303 301 300 301 302 303 302 299 295 290
319 325 328 329 329 332 338 345 351 353 355 357 357 0 3 3 2 4 4 3 355 342 329 323 329 335 337 341 350 353 355 358 2 7 11 11 11 11 9 7 7 6 5 4 2 0 360 360 0 359 358 357 355 354 350 343 338 335 334 331 327 324 321 319 316 314 311 310 308 307 307 309 309 308 307 304 301 300 300 301 303 303 301 297 293
313 322 327 327 327 331 337 344 348 350 353 354 354 355 358 359 359 0 1 2 356 343 329 321 324 331 332 334 342 350 353 355 357 3 8 9 9 11 11 10 9 8 6 4 2 359 358 357 357 357 356 355 355 353 349 343 339 337 335 333 329 325 323 322 319 316 314 312 311 310 310 310 310 312 312 308 303 302 301 302 304 304 303 300 296
314 322 330 326 327 330 334 340 341 344 348 349 349 349 352 355 355 356 358 358 354 344 331 321 321 325 326 327 335 345 351 352 353 358 4 5 6 9 11 11 11 10 8 5 2 358 356 355 355 354 354 353 353 352 349 345 341 339 338 336 332 328 326 324 322 319 318 317 315 313 312 309 309 314 315 309 305 305 306 306 306 305 303 300 298
320 323 330 327 326 327 329 334 333 335 341 344 345 343 345 349 351 352 354 354 350 344 332 321 318 321 321 321 329 340 347 349 348 350 357 360 2 6 9 12 12 12 11 7 3 359 357 355 354 352 352 352 352 350 347 345 342 341 340 337 334 331 329 326 325 323 322 321 319 317 314 312 313 315 312 307 305 307 310 311 309 306 302 299 298
325 323 323 319 320 322 324 328 328 329 335 339 340 339 339 343 347 347 349 349 347 342 332 322 317 318 317 317 323 332 341 346 345 344 349 352 355 0 4 9 13 14 13 11 7 2 358 354 353 351 351 351 350 348 345 342 340 339 339 337 334 331 329 328 326 325 324 323 321 319 318 317 315 315 312 308 307 309 312 313 312 309 303 299 297
324 325 319 312 311 315 319 323 325 325 328 333 335 334 334 337 341 342 345 346 343 339 332 323 318 316 313 313 317 325 334 341 342 339 340 343 348 354 359 4 10 13 14 14 12 7 2 356 353 351 350 349 348 346 343 340 337 336 337 336 333 330 328 328 327 325 324 323 323 322 322 320 318 318 316 314 312 314 315 315 314 311 307 301 297
317 320 316 311 309 310 314 319 321 322 323 325 328 329 329 332 335 338 341 342 340 336 331 325 319 315 311 310 312 318 327 335 338 336 334 334 340 347 351 357 4 10 13 14 14 12 7 0 356 352 350 348 347 345 342 339 335 333 333 334 333 330 327 326 327 325 325 325 325 324 323 323 321 319 319 317 316 317 317 316 314 310 307 303 299
314 312 309 308 308 309 311 315 317 317 318 318 321 322 324 327 331 334 337 338 337 333 329 326 319 315 311 308 310 313 319 329 334 332 329 329 334 340 344 350 356 4 10 13 14 14 11 6 0 355 351 349 348 346 343 338 334 331 330 330 331 331 328 327 328 328 327 327 327 325 324 323 322 321 320 319 318 318 317 316 314 310 306 304 302
311 305 302 305 307 309 310 312 312 312 312 312 314 315 319 323 327 330 332 334 333 331 328 326 320 314 312 308 308 310 313 322 329 329 328 327 329 332 337 342 349 356 4 9 11 12 12 10 5 360 355 351 349 346 343 338 333 329 328 328 328 329 330 329 329 330 330 329 329 326 324 324 323 322 321 320 319 318 316 314 312 310 306 303 302
301 298 296 299 303 307 309 309 308 308 308 307 308 310 314 319 323 326 328 329 330 329 327 325 320 314 312 308 307 308 309 316 324 327 327 326 325 326 330 335 341 348 357 3 6 8 10 10 8 4 360 355 351 347 343 338 333 329 326 326 326 328 329 330 331 332 332 330 330 328 326 325 324 323 323 321 320 318 316 313 310 308 305 302 300
286 291 292 292 296 302 306 306 304 304 304 303 303 305 309 314 319 321 323 324 325 326 325 324 319 314 311 308 306 306 306 311 320 325 325 325 323 322 325 329 335 341 349 356 359 3 6 7 6 4 2 358 354 348 344 340 335 331 326 324 325 327 329 331 332 333 333 332 332 330 328 326 326 325 325 325 323 322 318 315 311 308 305 303 300
276 282 285 284 286 291 298 301 300 300 299 298 298 299 305 310 314 316 318 319 321 322 323 322 318 314 311 308 305 304 303 307 316 322 323 323 321 319 321 325 329 335 343 349 351 355 360 3 3 2 0 357 355 352 348 344 340 336 330 326 325 327 329 331 332 333 335 335 334 332 330 329 329 329 329 328 326 325 322 319 315 311 308 305 302
273 276 279 280 280 283 289 295 295 295 293 293 293 294 300 305 308 312 314 315 317 319 320 319 317 314 311 308 303 301 301 302 312 318 320 321 321 319 319 322 325 329 336 341 344 347 352 357 359 360 358 356 354 352 350 348 345 341 336 331 327 327 330 331 332 332 334 335 335 334 332 331 331 331 330 328 326 325 323 321 319 316 312 308 305
275 275 277 280 281 279 283 289 290 290 287 286 285 288 296 300 303 307 309 310 313 315 316 316 315 314 310 306 301 298 297 299 307 314 318 320 321 320 319 320 321 325 329 335 338 340 345 350 354 355 355 354 352 352 350 348 346 343 340 337 333 330 330 332 332 331 331 332 333 333 332 332 331 329 328 326 325 323 322 321 321 319 316 313 309
276 276 278 283 283 278 280 285 286 285 282 279 279 284 291 293 297 301 303 306 309 310 312 313 314 312 308 303 298 295 294 296 305 313 317 319 321 321 319 318 318 320 323 329 333 334 338 343 347 349 350 351 351 350 349 347 345 343 340 338 335 332 331 331 331 330 328 330 332 333 333 332 330 328 326 324 324 323 322 321 320 318 317 315 311
275 277 280 284 284 281 280 282 283 280 277 274 275 280 284 286 291 295 298 301 303 304 307 311 312 309 303 297 293 291 290 295 305 312 316 318 319 319 318 316 316 316 318 324 327 327 331 337 341 344 346 347 348 347 346 344 342 341 339 336 332 330 330 330 331 331 329 330 332 333 333 332 332 331 329 327 326 325 324 323 321 318 315 312 310
273 277 281 284 283 282 281 280 279 277 272 269 271 275 277 280 285 289 291 294 296 299 304 308 309 304 297 291 288 287 289 295 304 310 312 315 316 316 315 314 314 314 314 319 321 321 326 331 335 338 341 343 345 344 343 341 339 339 337 334 330 327 327 329 330 332 332 332 333 333 333 333 334 333 331 329 327 326 324 323 321 319 315 312 309
272 276 280 282 281 280 279 277 275 273 269 267 269 270 271 275 280 282 285 288 291 295 302 305 304 297 290 287 286 286 288 294 301 304 307 310 312 313 313 313 314 311 311 315 315 317 322 326 330 333 337 340 342 342 340 338 337 336 335 332 329 327 326 327 328 331 333 332 333 332 331 331 330 330 328 326 324 322 321 321 321 320 317 312 308
271 274 277 277 276 275 275 274 273 271 270 269 269 267 267 271 274 277 279 283 288 293 299 300 296 291 286 284 284 285 288 292 296 299 303 306 309 310 311 313 312 309 309 312 313 314 317 320 324 330 335 339 340 339 337 335 334 334 332 331 328 326 326 326 327 329 330 330 330 330 329 328 326 325 323 321 319 318 317 319 319 320 320 316 311
271 273 273 271 270 271 272 273 273 272 272 272 268 264 263 265 268 271 275 280 286 292 295 294 290 285 282 281 281 283 286 291 293 297 302 305 306 308 310 311 307 304 307 311 312 313 314 317 323 330 336 338 337 335 334 333 332 332 331 329 327 327 326 326 326 327 327 326 327 327 326 325 323 321 318 316 315 314 315 316 318 320 325 324 316
270 270 268 265 265 267 268 271 274 273 272 271 264 260 257 258 264 268 274 281 286 289 290 289 285 280 278 277 278 281 285 290 293 298 304 305 306 308 310 309 303 301 305 310 311 310 312 317 324 330 334 336 335 333 332 332 332 332 331 330 329 328 326 326 326 325 325 325 325 325 324 322 321 319 315 313 313 313 314 317 320 324 327 324 316
268 266 263 261 260 262 265 267 271 271 270 269 262 256 252 255 263 269 275 280 283 286 286 284 278 274 273 274 277 281 287 291 295 299 303 304 305 306 307 304 300 300 305 309 307 308 313 319 323 326 331 334 334 333 332 332 333 334 333 331 330 328 327 326 326 325 325 325 325 324 323 321 320 318 315 313 312 313 315 318 322 324 324 321 316
266 265 261 256 257 260 263 265 267 266 266 267 263 256 250 255 263 267 272 276 280 282 282 278 272 269 269 271 277 283 288 291 294 298 301 303 303 304 303 300 299 300 303 304 304 307 313 316 320 326 332 334 332 332 333 334 335 335 335 333 331 330 329 329 329 329 328 327 326 324 323 322 321 320 317 316 315 316 317 319 321 322 321 319 317
268 266 260 256 258 260 262 265 264 262 261 262 259 252 248 253 260 263 267 271 276 278 276 271 267 265 266 270 278 282 285 288 292 297 302 301 300 302 301 301 300 298 299 300 299 304 309 313 319 326 330 331 330 333 336 337 336 336 336 334 333 333 333 334 333 332 331 329 327 325 325 324 322 321 320 319 319 319 320 320 320 321 320 319 319
270 269 264 260 259 258 261 263 262 259 257 256 254 250 247 250 256 259 263 268 273 275 271 265 262 263 266 271 274 275 279 285 290 295 298 297 297 300 301 302 300 295 295 293 293 299 308 314 320 326 328 330 333 336 338 339 339 339 338 336 336 336 336 336 334 332 330 328 326 325 325 324 323 322 321 320 320 320 320 320 320 320 320 319 319
269 270 266 262 261 260 261 261 261 260 256 254 254 251 247 247 251 255 260 266 272 272 265 261 260 262 267 269 270 274 281 286 291 294 294 293 295 299 301 302 297 292 291 288 289 300 311 317 322 327 330 333 336 338 340 340 341 340 339 338 337 337 336 335 332 331 329 327 326 325 325 324 323 322 321 320 319 319 319 320 320 320 320 319 317
266 264 260 260 263 262 262 262 261 260 258 256 254 252 248 246 248 251 256 265 270 266 260 259 260 263 265 266 270 278 285 288 292 294 293 294 297 299 301 300 293 289 287 285 289 303 315 320 324 328 331 335 338 340 341 341 341 340 338 337 336 335 334 332 330 329 327 326 325 325 324 322 321 320 319 318 318 318 318 318 319 319 318 318 316
266 263 255 255 261 261 262 264 263 264 265 264 259 253 248 246 245 247 253 261 265 260 256 257 260 263 264 266 274 281 285 287 288 290 293 298 301 300 299 296 289 284 284 284 292 307 318 322 326 329 331 335 339 342 341 340 339 338 336 335 333 331 330 328 327 326 325 324 323 322 320 319 318 318 317 317 316 316 316 317 318 317 317 316 315
271 264 256 253 256 256 258 261 264 269 274 273 264 254 248 246 244 245 251 257 258 255 254 256 258 260 262 268 278 282 282 281 281 288 295 301 303 300 294 290 282 277 279 284 294 307 316 321 325 326 329 335 339 340 339 337 336 333 331 329 327 325 325 324 323 323 322 322 320 319 318 317 316 315 315 315 315 315 315 316 317 317 316 316 315
269 260 255 257 256 252 254 259 264 270 274 273 265 256 249 246 245 245 249 252 253 253 254 255 255 256 261 270 277 277 274 273 277 287 295 301 305 299 288 280 273 271 276 285 295 305 314 321 323 325 329 334 336 335 335 333 329 326 323 321 320 320 321 321 321 321 320 319 318 318 317 317 315 315 314 314 313 313 314 315 316 316 316 315 314
265 258 255 259 260 252 251 258 263 266 268 266 259 254 250 248 245 243 245 248 250 252 253 253 251 252 259 268 271 268 266 267 275 285 295 303 304 297 281 269 266 269 276 286 294 304 315 321 323 326 329 330 330 330 329 325 322 319 317 317 317 317 318 319 319 319 318 318 317 317 317 316 315 314 313 313 312 312 312 314 315 316 315 314 313
264 261 254 253 256 254 252 256 259 260 261 259 252 246 248 247 239 238 242 245 247 249 251 250 249 250 256 261 261 260 262 266 274 284 296 299 292 286 276 265 264 268 276 285 294 305 317 322 324 326 326 325 325 323 322 319 316 315 314 315 316 317 318 318 318 318 317 317 317 316 315 315 314 314 313 312 311 311 313 314 315 316 315 314 313
264 264 258 252 253 257 256 253 254 258 258 257 248 239 243 240 229 233 239 241 243 246 248 249 248 251 253 252 251 255 260 268 277 283 289 287 275 273 278 270 266 270 277 286 295 306 316 321 324 324 323 321 320 319 317 315 313 313 313 314 316 317 318 318 317 316 317 317 317 316 315 314 314 314 313 312 312 312 313 314 315 315 314 313 313
263 262 259 252 251 253 251 246 249 254 258 256 245 234 233 229 223 230 235 236 239 242 246 247 247 249 249 246 246 251 260 270 277 275 270 266 263 272 278 271 269 275 282 290 297 305 314 320 323 322 319 318 317 316 314 314 314 314 315 316 316 317 317 317 316 315 317 317 317 316 315 315 314 313 312 311 312 312 313 313 313 313 312 312 311
262 258 251 242 241 246 247 244 243 247 252 250 241 231 225 222 222 227 231 231 234 238 243 245 244 243 242 242 245 251 261 271 272 268 261 255 259 270 271 267 271 279 286 291 296 304 313 319 320 317 316 316 315 314 314 315 315 314 315 315 316 316 316 315 314 315 316 317 317 317 315 314 313 312 310 310 311 312 312 312 311 312 311 311 310
262 257 247 237 235 243 248 244 240 241 241 235 232 230 225 222 223 226 228 228 229 235 240 241 239 236 237 240 245 253 263 270 272 269 263 255 257 263 262 261 270 280 285 288 295 305 313 317 316 314 314 313 312 313 314 315 314 313 313 313 314 314 314 314 314 316 319 321 319 317 315 313 312 311 310 310 311 312 312 311 311 311 311 310 309
262 256 246 241 237 240 244 241 239 240 239 232 230 234 231 226 226 228 229 228 228 233 235 234 232 233 236 240 247 256 264 271 273 271 266 258 257 259 257 258 270 279 283 288 298 307 312 314 313 312 313 312 313 315 316 315 315 316 316 316 316 316 317 317 318 320 322 323 321 319 317 316 314 313 312 312 313 313 313 312 312 312 311 309 308
260 254 245 241 239 237 236 236 238 241 242 240 236 236 233 226 227 230 229 227 227 229 229 228 230 232 237 242 250 258 266 273 275 272 266 258 256 256 255 262 275 282 285 292 303 308 309 309 309 311 312 314 316 317 318 318 318 319 319 319 320 321 322 324 324 325 325 326 326 323 320 319 317 316 315 315 315 316 315 315 314 313 311 309 308
254 251 245 240 238 236 235 236 238 240 243 244 238 234 229 222 224 229 229 228 228 226 225 226 229 233 238 244 251 259 267 273 274 271 260 250 250 252 254 268 278 282 288 300 306 305 305 306 308 310 312 315 317 317 318 318 319 320 320 320 321 323 325 326 326 326 326 327 327 325 322 320 320 318 317 317 318 319 319 318 316 314 312 310 309
250 250 246 241 238 236 235 236 237 237 238 234 227 223 221 219 223 229 230 229 227 224 224 226 230 235 239 245 251 258 266 270 271 263 247 243 248 249 256 271 278 285 295 303 302 302 304 307 310 311 313 315 316 315 317 318 319 318 318 319 321 322 323 323 323 322 322 323 324 323 322 321 321 320 317 317 319 320 319 318 316 315 313 312 311
249 250 248 241 236 234 234 234 234 233 228 220 216 218 221 223 226 228 229 229 227 226 226 227 231 235 239 244 251 260 267 270 261 242 234 242 246 248 260 271 278 288 297 299 299 302 306 310 312 314 315 315 315 316 318 319 318 317 317 319 320 320 321 321 320 318 318 319 321 321 321 322 322 320 317 316 318 319 318 317 317 316 315 313 312
245 247 245 237 231 230 232 232 231 228 223 217 218 222 226 228 230 230 230 230 227 226 226 227 231 236 241 247 253 263 270 262 240 225 232 241 240 247 262 270 280 290 295 296 299 304 309 313 315 316 316 316 317 319 319 318 317 317 317 318 318 319 319 318 317 315 314 317 321 323 322 321 321 318 316 315 316 317 317 317 317 317 316 315 314
240 242 238 230 225 226 230 232 230 226 220 218 219 223 226 228 229 229 229 228 226 224 224 227 232 238 244 249 255 263 261 245 228 227 233 233 233 246 259 268 282 290 293 296 301 308 312 315 316 316 317 319 320 320 319 319 318 318 318 318 318 318 317 316 315 314 314 317 321 324 324 322 320 318 317 317 317 318 318 318 318 318 318 317 315
233 234 234 228 223 225 230 233 232 226 219 217 219 222 225 227 228 227 227 227 224 221 225 230 236 241 246 250 253 250 241 232 229 230 231 228 233 248 260 272 283 289 294 299 305 310 313 315 316 317 319 320 320 320 320 319 319 319 318 318 318 318 318 316 315 315 318 321 323 325 326 326 324 322 322 322 322 322 321 320 320 320 320 318 317
230 232 233 230 226 226 230 232 231 225 218 218 221 224 226 228 229 229 228 228 224 221 229 235 237 241 243 242 240 236 230 228 226 226 227 228 236 253 265 276 284 290 296 302 308 312 314 315 316 317 318 319 319 320 320 319 319 318 318 318 319 319 319 318 318 320 322 325 327 329 330 329 328 326 325 325 325 325 324 322 322 322 322 320 318
230 233 234 230 227 226 228 229 228 226 220 220 223 224 227 229 229 228 230 230 225 223 231 235 235 237 235 230 233 232 224 218 218 222 226 231 245 261 271 278 285 292 299 306 312 315 315 314 315 317 318 319 320 320 320 319 318 318 318 318 319 321 321 320 320 323 325 326 329 331 332 331 329 327 326 325 324 325 325 324 324 324 323 321 320
Height
5885 5885 5885 5885 5884 5883 5883 5882 5881 5880 5879 5878 5877 5876 5875 5874 5873 5873 5872 5872 5871 5871 5870 5870 5870 5870 5869 5869 5869 5869 5868 5868 5867 5866 5865 5864 5863 5862 5861 5860 5859 5858 5857 5856 5855 5854 5854 5853 5852 5851 5851 5850 5850 5849 5849 5848 5848 5847 5846 5846 5845 5845 5844 5844 5843 5842 5842 5841 5841 5840 5839 5838 5838 5837 5837 5836 5836 5835 5835 5834 5834 5834 5834 5834 5833
5885 5885 5885 5885 5884 5883 5882 5882 5881 5880 5880 5879 5877 5876 5875 5874 5874 5873 5872 5872 5872 5871 5870 5870 5870 5870 5870 5869 5869 5869 5869 5868 5867 5866 5865 5864 5863 5862 5861 5860 5859 5858 5857 5856 5855 5854 5854 5853 5852 5852 5851 5851 5850 5850 5849 5848 5848 5847 5847 5846 5845 5845 5844 5844 5843 5842 5842 5841 5840 5839 5839 5838 5837 5837 5836 5836 5835 5834 5834 5834 5833 5833 5833 5833 5832
5885 5885 5885 5884 5883 5883 5882 5882 5881 5880 5880 5879 5878 5877 5875 5875 5874 5873 5873 5872 5872 5871 5871 5870 5871 5870 5870 5869 5869 5869 5869 5868 5867 5866 5865 5864 5863 5862 5861 5860 5859 5858 5857 5856 5855 5854 5854 5853 5853 5852 5851 5851 5850 5850 5849 5849 5848 5847 5847 5846 5845 5845 5844 5844 5843 5842 5842 5841 5840 5839 5839 5838 5837 5836 5836 5835 5835 5834 5833 5833 5832 5832 5832 5831 5831
5884 5884 5884 5884 5883 5882 5882 5881 5881 5880 5880 5879 5878 5877 5876 5875 5874 5874 5873 5872 5872 5871 5871 5870 5871 5870 5870 5869 5869 5869 5869 5868 5867 5866 5865 5865 5864 5863 5861 5860 5859 5858 5857 5856 5855 5855 5854 5853 5853 5852 5851 5851 5850 5850 5849 5849 5848 5848 5847 5846 5846 5845 5844 5844 5843 5842 5842 5841 5840 5839 5839 5838 5837 5836 5835 5835 5834 5834 5833 5832 5832 5831 5831 5830 5830
5884 5884 5884 5883 5883 5882 5881 5881 5881 5880 5880 5879 5878 5877 5876 5875 5874 5874 5873 5873 5872 5871 5871 5870 5871 5871 5870 5869 5869 5869 5869 5868 5867 5866 5866 5865 5864 5863 5862 5861 5860 5858 5858 5857 5856 5855 5854 5854 5853 5852 5852 5851 5850 5850 5849 5849 5848 5848 5847 5846 5845 5845 5844 5843 5843 5842 5841 5841 5840 5839 5838 5838 5837 5836 5835 5834 5834 5833 5832 5832 5831 5831 5830 5830 5829
5883 5884 5884 5883 5882 5882 5881 5881 5880 5880 5880 5879 5878 5877 5876 5875 5874 5874 5873 5872 5872 5871 5871 5870 5871 5871 5870 5869 5869 5869 5869 5868 5867 5867 5866 5865 5864 5863 5863 5861 5860 5859 5858 5857 5856 5856 5855 5854 5853 5853 5852 5851 5851 5850 5850 5849 5848 5848 5847 5846 5845 5845 5844 5843 5842 5842 5841 5840 5839 5839 5838 5837 5836 5835 5835 5834 5833 5833 5832 5831 5830 5830 5829 5829 5828
5883 5883 5883 5883 5882 5882 5881 5881 5880 5880 5880 5879 5878 5877 5876 5875 5874 5873 5873 5872 5872 5871 5870 5870 5870 5870 5870 5870 5869 5869 5869 5868 5868 5867 5866 5866 5865 5864 5863 5862 5861 5860 5859 5858 5857 5856 5855 5854 5854 5853 5852 5851 5851 5850 5850 5849 5848 5848 5847 5846 5845 5845 5844 5843 5842 5841 5840 5840 5839 5838 5837 5836 5836 5835 5834 5834 5833 5832 5831 5831 5830 5829 5829 5828 5828
5882 5882 5882 5882 5882 5881 5881 5880 5880 5880 5879 5879 5878 5876 5875 5875 5874 5873 5872 5872 5871 5871 5870 5870 5870 5870 5870 5870 5869 5869 5869 5868 5868 5867 5866 5866 5865 5865 5864 5863 5861 5860 5859 5858 5857 5856 5855 5855 5854 5853 5852 5852 5851 5850 5850 5849 5849 5848 5847 5846 5845 5845 5844 5843 5842 5841 5840 5839 5838 5838 5837 5836 5835 5835 5834 5833 5833 5832 5831 5830 5829 5829 5828 5828 5827
5880 5881 5881 5881 5881 5881 5880 5880 5880 5879 5879 5878 5877 5876 5875 5875 5874 5873 5872 5872 5871 5870 5870 5870 5870 5870 5870 5870 5869 5869 5869 5868 5868 5867 5867 5866 5866 5865 5864 5863 5862 5861 5860 5859 5858 5857 5856 5855 5854 5853 5853 5852 5851 5850 5850 5849 5848 5848 5847 5846 5845 5844 5844 5843 5842 5841 5840 5839 5838 5837 5837 5836 5835 5834 5833 5833 5832 5831 5830 5830 5829 5828 5828 5827 5827
5879 5879 5880 5880 5880 5880 5880 5880 5879 5878 5878 5878 5877 5876 5875 5875 5874 5873 5872 5872 5871 5870 5870 5869 5869 5870 5870 5869 5869 5869 5869 5868 5867 5867 5866 5866 5866 5865 5864 5863 5862 5861 5860 5859 5858 5857 5856 5855 5854 5854 5853 5852 5851 5850 5850 5849 5848 5848 5847 5846 5845 5844 5843 5842 5841 5840 5839 5839 5838 5837 5836 5836 5835 5834 5833 5833 5832 5831 5830 5829 5828 5828 5827 5827 5826
5878 5879 5879 5879 5879 5879 5879 5879 5878 5878 5877 5877 5876 5875 5875 5874 5874 5873 5872 5871 5870 5870 5869 5869 5869 5869 5869 5869 5869 5869 5868 5868 5867 5867 5866 5866 5865 5865 5864 5864 5863 5862 5861 5860 5858 5857 5856 5855 5855 5854 5853 5852 5851 5851 5850 5848 5847 5847 5847 5846 5845 5844 5843 5842 5841 5840 5839 5838 5838 5837 5836 5835 5834 5834 5833 5832 5832 5831 5829 5828 5827 5827 5827 5826 5825
5878 5878 5878 5879 5879 5879 5879 5878 5878 5877 5876 5876 5875 5875 5874 5874 5873 5873 5872 5871 5870 5869 5869 5869 5869 5869 5869 5869 5869 5868 5868 5868 5867 5866 5866 5866 5865 5865 5864 5864 5863 5862 5861 5860 5859 5858 5857 5856 5855 5854 5853 5852 5851 5851 5850 5848 5847 5846 5846 5846 5845 5844 5843 5842 5841 5840 5839 5838 5837 5837 5836 5835 5834 5833 5832 5832 5831 5830 5829 5828 5827 5826 5826 5825 5824
5877 5877 5877 5878 5878 5878 5878 5877 5877 5876 5876 5875 5874 5874 5873 5873 5873 5872 5871 5870 5869 5869 5869 5868 5868 5869 5869 5869 5868 5868 5868 5868 5867 5866 5866 5866 5865 5865 5864 5864 5863 5862 5861 5860 5859 5858 5857 5856 5855 5854 5853 5852 5851 5850 5849 5848 5847 5846 5845 5845 5845 5844 5843 5842 5841 5840 5839 5838 5838 5837 5836 5835 5834 5833 5832 5831 5830 5829 5828 5827 5826 5825 5824 5824 5823
5875 5876 5876 5877 5878 5878 5877 5877 5876 5875 5875 5874 5874 5873 5873 5873 5872 5871 5871 5870 5869 5869 5868 5868 5868 5868 5868 5868 5868 5868 5868 5867 5867 5866 5866 5866 5865 5865 5864 5863 5863 5862 5861 5860 5859 5858 5857 5856 5855 5854 5853 5852 5851 5850 5849 5848 5847 5845 5844 5844 5844 5843 5843 5842 5841 5840 5840 5839 5838 5837 5836 5835 5834 5833 5832 5831 5830 5829 5828 5827 5826 5825 5823 5822 5822
5874 5875 5876 5876 5877 5877 5876 5876 5875 5874 5874 5873 5873 5872 5872 5872 5871 5871 5870 5869 5869 5868 5868 5868 5868 5867 5867 5867 5867 5867 5867 5867 5867 5866 5866 5865 5865 5864 5864 5863 5862 5862 5861 5860 5859 5858 5857 5856 5855 5854 5853 5852 5851 5850 5849 5848 5847 5846 5844 5844 5843 5843 5842 5842 5841 5840 5840 5839 5838 5837 5836 5835 5834 5833 5832 5831 5830 5829 5827 5826 5825 5824 5823 5822 5820
5874 5874 5875 5875 5875 5875 5875 5875 5874 5873 5873 5872 5872 5871 5871 5871 5870 5870 5869 5869 5868 5868 5867 5867 5867 5867 5867 5867 5867 5867 5866 5866 5866 5866 5865 5865 5865 5864 5863 5863 5862 5861 5860 5859 5859 5858 5857 5856 5855 5854 5853 5852 5851 5850 5849 5848 5847 5846 5845 5844 5843 5843 5842 5841 5841 5840 5840 5839 5838 5837 5836 5835 5834 5833 5832 5831 5829 5828 5827 5825 5824 5823 5822 5821 5820
5873 5873 5873 5874 5874 5874 5874 5873 5872 5872 5872 5871 5870 5870 5870 5870 5869 5869 5869 5868 5868 5867 5867 5867 5866 5866 5866 5866 5866 5866 5866 5865 5865 5865 5865 5864 5864 5864 5863 5862 5862 5861 5860 5859 5858 5857 5856 5855 5854 5853 5852 5851 5850 5850 5849 5848 5847 5846 5845 5844 5843 5842 5842 5841 5840 5840 5839 5838 5838 5837 5836 5834 5833 5832 5831 5830 5828 5827 5826 5824 5823 5822 5821 5820 5819
5871 5871 5872 5872 5872 5872 5872 5872 5871 5870 5870 5870 5869 5869 5869 5868 5868 5868 5868 5867 5867 5866 5866 5866 5866 5866 5865 5865 5865 5865 5864 5864 5864 5864 5864 5864 5863 5863 5862 5862 5861 5860 5859 5859 5858 5857 5856 5855 5854 5853 5852 5851 5850 5849 5849 5848 5847 5846 5845 5845 5843 5842 5842 5841 5840 5839 5838 5838 5837 5836 5835 5834 5833 5831 5830 5829 5827 5826 5825 5823 5822 5821 5820 5819 5818
5869 5869 5869 5869 5870 5870 5870 5870 5869 5869 5868 5868 5867 5867 5867 5867 5867 5867 5867 5866 5866 5865 5865 5865 5865 5865 5865 5864 5864 5864 5863 5863 5863 5863 5863 5863 5863 5862 5862 5861 5860 5860 5859 5858 5857 5856 5855 5854 5853 5852 5851 5850 5849 5849 5848 5847 5847 5846 5845 5844 5843 5842 5841 5841 5840 5839 5838 5837 5836 5835 5834 5833 5832 5831 5829 5828 5826 5825 5824 5822 5821 5820 5819 5818 5816
5866 5867 5867 5867 5868 5868 5868 5868 5868 5867 5866 5866 5865 5866 5866 5866 5866 5866 5866 5865 5865 5864 5864 5864 5864 5864 5864 5863 5863 5863 5862 5862 5862 5862 5862 5862 5862 5862 5861 5860 5860 5859 5858 5857 5856 5855 5854 5853 5852 5851 5851 5850 5849 5848 5847 5846 5846 5845 5844 5844 5843 5842 5841 5840 5840 5838 5837 5836 5835 5834 5833 5832 5831 5830 5828 5827 5825 5824 5822 5821 5820 5819 5817 5816 5815
5864 5865 5865 5866 5866 5866 5866 5866 5865 5865 5864 5863 5863 5864 5864 5864 5864 5864 5864 5864 5863 5863 5863 5863 5863 5863 5863 5862 5862 5862 5862 5861 5862 5861 5861 5861 5861 5860 5860 5859 5859 5858 5857 5856 5855 5854 5853 5852 5852 5851 5850 5849 5848 5847 5846 5846 5845 5844 5844 5843 5842 5842 5841 5840 5839 5838 5837 5836 5835 5834 5832 5831 5830 5829 5827 5826 5824 5823 5821 5820 5818 5817 5816 5814 5813
5862 5863 5864 5864 5864 5864 5864 5863 5863 5862 5861 5861 5862 5862 5862 5862 5863 5863 5862 5862 5861 5861 5862 5862 5862 5862 5861 5861 5860 5861 5861 5861 5861 5861 5860 5860 5859 5859 5859 5858 5857 5857 5856 5855 5854 5853 5852 5851 5851 5850 5849 5848 5847 5846 5845 5845 5844 5843 5843 5842 5842 5841 5840 5839 5839 5838 5837 5835 5834 5833 5831 5830 5828 5827 5826 5824 5823 5822 5820 5818 5817 5816 5814 5813 5811
5860 5861 5862 5862 5861 5861 5861 5860 5859 5859 5859 5859 5860 5861 5861 5861 5861 5861 5860 5860 5859 5860 5860 5861 5861 5860 5860 5859 5859 5860 5860 5860 5860 5859 5859 5858 5858 5858 5857 5857 5856 5856 5855 5854 5853 5852 5852 5851 5850 5849 5848 5847 5847 5846 5845 5844 5843 5842 5842 5841 5841 5840 5839 5839 5838 5837 5836 5835 5834 5832 5830 5829 5827 5826 5825 5823 5822 5820 5819 5817 5816 5814 5813 5811 5810
5857 5858 5859 5859 5858 5858 5857 5857 5857 5857 5857 5858 5859 5859 5859 5859 5859 5858 5858 5858 5858 5859 5859 5860 5859 5858 5858 5858 5858 5858 5858 5859 5858 5858 5858 5857 5857 5856 5856 5855 5855 5854 5854 5853 5852 5852 5851 5850 5849 5848 5847 5846 5846 5844 5843 5842 5841 5841 5840 5840 5839 5839 5838 5838 5837 5836 5835 5834 5833 5831 5829 5828 5826 5825 5823 5822 5820 5819 5817 5815 5814 5813 5812 5810 5808
5855 5855 5856 5855 5855 5855 5855 5854 5855 5855 5855 5856 5857 5857 5857 5857 5856 5856 5856 5857 5857 5857 5858 5858 5858 5857 5857 5857 5857 5857 5857 5857 5857 5856 5856 5856 5856 5855 5855 5854 5854 5853 5853 5852 5851 5851 5850 5849 5848 5847 5847 5846 5844 5843 5842 5841 5840 5840 5839 5839 5838 5838 5837 5837 5836 5835 5834 5833 5831 5830 5828 5826 5825 5824 5822 5820 5819 5817 5815 5814 5812 5812 5810 5809 5807
5851 5852 5852 5852 5852 5852 5852 5852 5853 5853 5853 5854 5854 5854 5855 5854 5854 5854 5855 5856 5856 5856 5856 5856 5856 5856 5855 5855 5855 5855 5855 5855 5855 5855 5855 5855 5854 5854 5854 5853 5853 5852 5851 5851 5850 5850 5849 5848 5848 5847 5846 5845 5843 5842 5841 5840 5840 5839 5838 5838 5837 5836 5836 5835 5834 5834 5832 5831 5829 5828 5827 5825 5824 5822 5820 5819 5817 5815 5813 5812 5811 5810 5809 5807 5804
5847 5847 5848 5848 5849 5849 5849 5849 5850 5850 5851 5851 5852 5852 5852 5852 5852 5853 5854 5855 5854 5854 5854 5854 5854 5854 5854 5853 5853 5853 5853 5853 5853 5853 5853 5853 5853 5852 5852 5852 5852 5851 5850 5850 5849 5849 5848 5848 5847 5846 5845 5844 5843 5842 5841 5840 5839 5838 5837 5837 5836 5835 5834 5834 5833 5832 5831 5829 5828 5826 5825 5823 5822 5820 5818 5816 5815 5813 5811 5810 5809 5809 5807 5805 5801
5843 5844 5845 5846 5846 5847 5847 5847 5848 5848 5848 5849 5849 5850 5850 5851 5851 5852 5853 5853 5852 5852 5852 5853 5853 5853 5852 5852 5852 5852 5852 5852 5852 5852 5852 5851 5851 5851 5851 5851 5850 5849 5849 5848 5848 5848 5847 5847 5846 5845 5843 5842 5841 5841 5840 5839 5838 5837 5836 5835 5835 5834 5833 5832 5831 5830 5829 5828 5826 5824 5823 5821 5819 5817 5816 5814 5812 5811 5809 5808 5807 5806 5804 5802 5799
5840 5841 5842 5843 5844 5845 5845 5845 5845 5845 5845 5846 5847 5848 5848 5849 5850 5850 5851 5851 5850 5850 5850 5850 5851 5851 5851 5851 5851 5850 5850 5850 5850 5850 5850 5850 5849 5849 5850 5849 5848 5848 5847 5847 5847 5847 5846 5845 5844 5843 5842 5841 5840 5839 5839 5838 5837 5836 5835 5834 5833 5832 5831 5830 5829 5828 5827 5825 5823 5822 5820 5819 5817 5815 5813 5811 5809 5808 5807 5806 5805 5803 5801 5799 5797
5837 5838 5840 5841 5842 5842 5843 5843 5843 5842 5843 5844 5845 5846 5846 5847 5847 5848 5849 5849 5848 5848 5848 5848 5849 5849 5849 5849 5849 5849 5849 5848 5848 5848 5848 5848 5848 5848 5847 5847 5846 5846 5846 5846 5846 5845 5844 5844 5843 5842 5841 5840 5839 5838 5837 5837 5836 5835 5834 5833 5832 5831 5830 5829 5827 5826 5825 5823 5822 5820 5818 5816 5815 5813 5811 5809 5807 5806 5804 5804 5802 5800 5798 5796 5794
5835 5836 5837 5839 5840 5840 5840 5840 5841 5841 5841 5842 5843 5844 5844 5844 5845 5847 5847 5847 5847 5847 5847 5847 5847 5847 5847 5848 5847 5847 5847 5847 5847 5847 5846 5846 5846 5846 5845 5845 5844 5845 5844 5844 5844 5843 5842 5842 5841 5840 5839 5838 5838 5837 5836 5835 5834 5834 5833 5832 5831 5829 5828 5827 5826 5825 5823 5822 5820 5819 5817 5815 5813 5811 5809 5807 5805 5803 5802 5801 5800 5798 5796 5794 5792
5833 5834 5835 5836 5837 5837 5837 5838 5838 5839 5839 5840 5841 5842 5842 5842 5844 5845 5845 5845 5845 5845 5845 5845 5845 5846 5846 5846 5846 5846 5845 5845 5845 5844 5844 5844 5844 5844 5843 5843 5843 5843 5843 5842 5842 5841 5840 5840 5839 5838 5837 5836 5836 5836 5835 5834 5833 5833 5832 5830 5829 5828 5827 5826 5825 5823 5822 5820 5819 5817 5815 5813 5811 5809 5807 5805 5803 5801 5800 5799 5798 5796 5794 5792 5790
5831 5832 5833 5833 5834 5834 5835 5835 5836 5837 5838 5838 5839 5839 5840 5840 5842 5842 5843 5843 5844 5844 5843 5843 5844 5844 5844 5844 5845 5844 5844 5843 5842 5842 5842 5842 5842 5842 5842 5842 5841 5841 5841 5841 5840 5839 5839 5838 5837 5836 5835 5835 5835 5834 5834 5833 5832 5831 5830 5829 5828 5827 5825 5824 5823 5821 5820 5818 5817 5815 5814 5811 5809 5807 5805 5803 5801 5799 5798 5796 5795 5793 5791 5789 5787
5829 5830 5830 5830 5830 5831 5832 5833 5834 5835 5836 5836 5836 5837 5838 5838 5839 5840 5841 5841 5842 5842 5842 5842 5842 5843 5843 5843 5844 5843 5842 5841 5840 5840 5840 5840 5840 5841 5841 5841 5840 5840 5840 5840 5839 5838 5837 5836 5836 5835 5834 5834 5834 5833 5833 5832 5831 5830 5829 5828 5827 5825 5824 5822 5821 5820 5818 5816 5815 5813 5811 5809 5807 5805 5803 5801 5799 5797 5795 5793 5792 5790 5788 5786 5785
5827 5827 5828 5828 5827 5828 5829 5831 5832 5833 5833 5834 5834 5835 5835 5836 5837 5838 5839 5839 5840 5840 5840 5840 5841 5841 5842 5843 5843 5842 5841 5839 5839 5838 5838 5839 5839 5839 5839 5839 5839 5839 5839 5839 5839 5838 5837 5836 5835 5834 5834 5833 5833 5832 5832 5831 5830 5829 5828 5827 5825 5824 5822 5821 5819 5818 5816 5815 5813 5811 5809 5806 5804 5803 5801 5799 5796 5794 5792 5791 5789 5788 5786 5784 5782
5824 5825 5825 5825 5825 5825 5827 5828 5829 5830 5831 5831 5832 5832 5832 5833 5835 5836 5836 5837 5838 5839 5839 5839 5839 5839 5840 5841 5842 5841 5839 5838 5837 5837 5837 5837 5837 5837 5837 5838 5838 5838 5838 5838 5838 5837 5836 5835 5834 5833 5833 5833 5832 5831 5831 5830 5829 5828 5826 5825 5824 5822 5820 5819 5817 5816 5815 5813 5811 5809 5807 5804 5802 5801 5799 5797 5794 5792 5790 5788 5787 5785 5784 5782 5780
5822 5822 5822 5823 5823 5824 5824 5825 5826 5827 5828 5828 5829 5829 5830 5831 5832 5833 5834 5835 5836 5837 5838 5838 5838 5838 5839 5839 5839 5839 5837 5836 5836 5835 5835 5836 5836 5836 5836 5837 5837 5837 5837 5837 5837 5836 5835 5834 5833 5832 5832 5831 5831 5830 5829 5829 5827 5826 5825 5823 5822 5820 5818 5817 5815 5814 5813 5811 5809 5807 5805 5802 5800 5799 5797 5795 5792 5790 5788 5786 5784 5783 5781 5780 5778
5819 5819 5820 5820 5821 5822 5822 5823 5823 5824 5824 5825 5826 5827 5828 5829 5830 5831 5832 5834 5834 5835 5836 5836 5837 5837 5837 5837 5837 5837 5836 5835 5835 5834 5834 5834 5835 5835 5836 5836 5836 5836 5836 5835 5835 5835 5834 5833 5832 5831 5830 5830 5829 5828 5828 5827 5826 5824 5823 5821 5820 5818 5816 5815 5813 5812 5811 5809 5807 5805 5803 5800 5798 5796 5794 5792 5790 5788 5786 5784 5782 5780 5779 5777 5775
5816 5817 5817 5818 5818 5819 5819 5820 5820 5821 5822 5822 5823 5824 5826 5827 5827 5829 5830 5831 5832 5833 5834 5835 5835 5835 5835 5835 5835 5835 5835 5835 5834 5833 5833 5833 5834 5834 5835 5835 5835 5835 5834 5834 5834 5833 5832 5831 5830 5829 5829 5828 5827 5826 5826 5825 5824 5822 5821 5819 5818 5816 5814 5813 5811 5810 5809 5807 5805 5803 5800 5798 5796 5794 5792 5790 5788 5786 5784 5782 5780 5778 5776 5775 5773
5813 5814 5815 5815 5815 5816 5816 5817 5818 5819 5820 5820 5821 5822 5823 5824 5825 5826 5828 5829 5830 5831 5832 5833 5833 5833 5833 5833 5833 5834 5834 5833 5833 5832 5832 5832 5833 5833 5834 5834 5834 5833 5834 5834 5833 5832 5831 5830 5829 5828 5827 5826 5825 5825 5824 5823 5822 5821 5819 5817 5816 5814 5812 5811 5809 5808 5807 5806 5804 5801 5798 5796 5794 5792 5789 5788 5786 5784 5782 5780 5778 5776 5774 5772 5770
5811 5812 5812 5812 5813 5813 5814 5815 5816 5817 5817 5818 5819 5820 5821 5822 5823 5824 5826 5827 5828 5830 5831 5831 5831 5831 5830 5830 5831 5832 5832 5832 5832 5832 5831 5831 5831 5832 5832 5832 5832 5832 5832 5832 5832 5831 5830 5829 5828 5827 5826 5825 5824 5823 5822 5821 5820 5818 5817 5815 5814 5812 5810 5809 5807 5806 5805 5804 5802 5800 5797 5794 5791 5789 5787 5785 5784 5782 5780 5777 5775 5773 5771 5769 5768
5809 5809 5809 5809 5810 5811 5812 5813 5814 5815 5815 5816 5817 5818 5819 5820 5821 5822 5824 5825 5827 5828 5828 5829 5829 5829 5828 5828 5829 5830 5830 5830 5831 5831 5831 5830 5830 5830 5830 5830 5830 5830 5831 5831 5830 5830 5829 5828 5826 5825 5825 5823 5822 5821 5820 5819 5817 5816 5814 5812 5810 5809 5807 5806 5804 5803 5803 5803 5801 5798 5795 5792 5789 5787 5784 5783 5781 5779 5777 5775 5773 5771 5769 5767 5765
5807 5807 5807 5807 5808 5809 5810 5811 5812 5813 5813 5814 5814 5816 5817 5818 5820 5821 5823 5824 5825 5826 5826 5826 5826 5827 5827 5827 5827 5827 5828 5828 5829 5829 5829 5829 5829 5829 5829 5829 5829 5829 5830 5829 5829 5828 5827 5826 5826 5825 5823 5822 5821 5820 5818 5817 5815 5813 5811 5809 5807 5805 5803 5801 5800 5799 5799 5799 5798 5796 5793 5790 5787 5785 5782 5780 5778 5777 5775 5773 5770 5768 5766 5764 5763
5804 5804 5804 5804 5805 5806 5807 5808 5809 5810 5811 5812 5812 5814 5815 5817 5818 5820 5821 5822 5823 5823 5823 5824 5824 5825 5825 5825 5825 5825 5826 5827 5827 5827 5827 5828 5828 5828 5828 5828 5828 5828 5828 5828 5827 5826 5826 5825 5825 5824 5823 5821 5820 5818 5817 5815 5813 5811 5810 5808 5806 5803 5801 5798 5796 5794 5793 5794 5794 5793 5790 5788 5785 5782 5780 5778 5776 5774 5772 5770 5768 5766 5764 5762 5760
5802 5802 5802 5802 5803 5804 5804 5806 5807 5808 5809 5809 5810 5812 5813 5815 5816 5818 5819 5820 5820 5820 5820 5821 5823 5823 5823 5823 5823 5824 5824 5825 5825 5825 5826 5827 5827 5827 5827 5827 5827 5827 5827 5826 5826 5825 5824 5824 5823 5822 5821 5820 5819 5817 5816 5814 5812 5810 5809 5807 5805 5803 5801 5799 5796 5793 5791 5791 5791 5790 5787 5785 5783 5780 5777 5775 5774 5772 5770 5767 5765 5763 5762 5760 5758
5800 5800 5800 5800 5801 5802 5802 5804 5805 5806 5807 5808 5809 5810 5811 5812 5814 5815 5816 5817 5817 5818 5819 5820 5821 5821 5821 5821 5821 5822 5822 5823 5823 5824 5824 5825 5825 5825 5825 5826 5826 5826 5826 5825 5825 5824 5823 5822 5821 5821 5820 5819 5818 5816 5814 5813 5811 5810 5808 5806 5804 5803 5801 5799 5796 5793 5790 5788 5788 5787 5785 5783 5781 5778 5775 5773 5772 5770 5767 5765 5763 5761 5759 5757 5755
5798 5798 5798 5798 5799 5800 5801 5802 5803 5804 5805 5806 5807 5808 5809 5810 5812 5813 5814 5815 5815 5816 5817 5819 5819 5819 5819 5819 5820 5821 5821 5821 5822 5822 5823 5823 5824 5824 5824 5825 5825 5824 5824 5824 5823 5822 5821 5820 5820 5819 5818 5817 5816 5814 5813 5811 5810 5808 5806 5805 5803 5802 5800 5798 5796 5794 5790 5787 5786 5785 5783 5782 5779 5776 5773 5771 5769 5767 5765 5762 5760 5758 5756 5755 5753
5795 5795 5795 5796 5796 5797 5799 5800 5801 5802 5802 5804 5805 5806 5807 5808 5809 5811 5812 5812 5813 5814 5816 5816 5816 5817 5817 5818 5819 5819 5819 5819 5820 5821 5821 5822 5822 5822 5823 5823 5823 5823 5823 5822 5821 5820 5820 5819 5818 5817 5816 5815 5814 5812 5811 5809 5807 5806 5804 5803 5802 5800 5799 5797 5795 5793 5790 5787 5784 5782 5781 5779 5777 5775 5772 5769 5767 5765 5762 5760 5758 5756 5754 5752 5750
5792 5792 5793 5793 5794 5795 5796 5798 5799 5799 5800 5801 5802 5803 5805 5806 5807 5808 5809 5810 5812 5813 5814 5814 5814 5815 5815 5816 5817 5817 5817 5818 5819 5819 5820 5820 5820 5821 5822 5822 5821 5821 5821 5820 5820 5819 5818 5817 5817 5816 5814 5813 5812 5810 5809 5807 5805 5804 5803 5801 5800 5798 5796 5795 5793 5791 5788 5786 5784 5781 5778 5776 5774 5772 5769 5767 5764 5762 5759 5757 5755 5753 5751 5749 5747
5789 5790 5790 5791 5792 5793 5795 5796 5797 5797 5798 5799 5800 5802 5803 5804 5806 5807 5808 5809 5810 5811 5812 5812 5812 5813 5813 5814 5815 5815 5816 5817 5818 5818 5818 5818 5819 5820 5820 5820 5820 5820 5819 5819 5818 5817 5816 5816 5815 5814 5813 5812 5810 5809 5807 5805 5804 5802 5801 5799 5798 5796 5794 5792 5790 5788 5785 5783 5781 5779 5776 5774 5771 5769 5767 5765 5762 5760 5757 5754 5752 5750 5748 5746 5744
5787 5788 5788 5789 5790 5791 5792 5793 5794 5795 5796 5797 5798 5800 5801 5803 5804 5806 5808 5809 5809 5810 5810 5810 5810 5811 5812 5812 5813 5814 5815 5816 5816 5816 5817 5817 5818 5818 5819 5818 5818 5818 5817 5817 5816 5815 5815 5814 5813 5812 5811 5810 5809 5807 5805 5804 5802 5801 5799 5798 5796 5794 5792 5790 5788 5785 5783 5780 5778 5776 5774 5772 5769 5767 5765 5763 5761 5758 5755 5753 5750 5748 5746 5744 5742